TimeEDT,TemperatureF,Dew PointF,Humidity,Sea Level PressureIn,VisibilityMPH,Wind Direction,Wind SpeedMPH,Gust SpeedMPH,PrecipitationIn,Events,Conditions,WindDirDegrees,DateUTC
12:15 AM,50.0,41.0,71,30.17,10.0,South,11.5,-,N/A,,Clear,190,2012-10-14 04:15:00
1:00 AM,51.8,42.8,71,30.16,10.0,SSW,12.7,19.6,N/A,,Clear,200,2012-10-14 05:00:00
1:20 AM,51.8,44.6,76,30.16,10.0,SSW,11.5,-,N/A,,Clear,200,2012-10-14 05:20:00
1:40 AM,53.6,44.6,72,30.16,10.0,SSW,12.7,17.3,N/A,,Clear,210,2012-10-14 05:40:00
2:05 AM,53.6,44.6,72,30.16,10.0,SSW,12.7,18.4,N/A,,Clear,210,2012-10-14 06:05:00
2:25 AM,53.6,44.6,72,30.16,10.0,SSW,11.5,17.3,N/A,,Scattered Clouds,210,2012-10-14 06:25:00
2:45 AM,53.6,44.6,72,30.16,10.0,SSW,13.8,17.3,N/A,,Mostly Cloudy,210,2012-10-14 06:45:00
3:05 AM,53.6,46.4,77,30.15,10.0,SSW,13.8,19.6,N/A,,Scattered Clouds,210,2012-10-14 07:05:00
3:30 AM,53.6,46.4,77,30.15,10.0,SW,11.5,17.3,N/A,,Scattered Clouds,220,2012-10-14 07:30:00
3:50 AM,53.6,46.4,77,30.15,10.0,SW,11.5,-,N/A,,Clear,220,2012-10-14 07:50:00
4:10 AM,53.6,46.4,77,30.16,10.0,SW,9.2,16.1,N/A,,Scattered Clouds,220,2012-10-14 08:10:00
4:30 AM,53.6,46.4,77,30.16,10.0,SW,11.5,17.3,N/A,,Overcast,220,2012-10-14 08:30:00
5:15 AM,53.6,46.4,77,30.16,10.0,SW,9.2,-,N/A,,Overcast,220,2012-10-14 09:15:00
5:35 AM,53.6,46.4,77,30.16,10.0,SW,9.2,16.1,N/A,,Mostly Cloudy,220,2012-10-14 09:35:00
5:55 AM,53.6,46.4,77,30.16,10.0,SW,9.2,-,N/A,,Scattered Clouds,220,2012-10-14 09:55:00
6:20 AM,53.6,46.4,77,30.16,10.0,SSW,8.1,-,N/A,,Scattered Clouds,200,2012-10-14 10:20:00
6:40 AM,51.8,46.4,82,30.16,10.0,SSW,9.2,-,N/A,,Clear,210,2012-10-14 10:40:00
7:00 AM,53.6,48.2,82,30.16,10.0,SW,9.2,-,N/A,,Scattered Clouds,220,2012-10-14 11:00:00
7:20 AM,55.4,48.2,77,30.16,10.0,SW,10.4,-,N/A,,Mostly Cloudy,220,2012-10-14 11:20:00
7:45 AM,53.6,48.2,82,30.17,10.0,SW,8.1,-,N/A,,Scattered Clouds,220,2012-10-14 11:45:00
8:45 AM,55.4,48.2,77,30.18,10.0,SSW,9.2,-,N/A,,Mostly Cloudy,210,2012-10-14 12:45:00
9:10 AM,57.2,50.0,77,30.17,10.0,SSW,10.4,17.3,N/A,,Scattered Clouds,210,2012-10-14 13:10:00
9:30 AM,57.2,50.0,77,30.17,10.0,SSW,8.1,-,N/A,,Scattered Clouds,210,2012-10-14 13:30:00
9:50 AM,59.0,50.0,72,30.17,10.0,SSW,9.2,16.1,N/A,,Scattered Clouds,200,2012-10-14 13:50:00
10:10 AM,60.8,50.0,68,30.17,10.0,SSW,9.2,-,N/A,,Scattered Clouds,210,2012-10-14 14:10:00
10:55 AM,60.8,51.8,72,30.16,10.0,SSW,10.4,-,N/A,,Scattered Clouds,210,2012-10-14 14:55:00
11:15 AM,62.6,51.8,68,30.15,10.0,SW,11.5,18.4,N/A,,Scattered Clouds,220,2012-10-14 15:15:00
11:35 AM,64.4,51.8,64,30.15,10.0,SW,11.5,17.3,N/A,,Mostly Cloudy,220,2012-10-14 15:35:00
12:00 PM,68.0,53.6,60,30.13,10.0,SSW,11.5,-,N/A,,Mostly Cloudy,200,2012-10-14 16:00:00
12:20 PM,68.0,53.6,60,30.13,10.0,SW,12.7,18.4,N/A,,Scattered Clouds,220,2012-10-14 16:20:00
12:40 PM,68.0,53.6,60,30.12,10.0,SW,10.4,16.1,N/A,,Clear,230,2012-10-14 16:40:00
1:00 PM,68.0,53.6,60,30.12,10.0,SSW,6.9,19.6,N/A,,Clear,210,2012-10-14 17:00:00
1:25 PM,71.6,55.4,57,30.10,10.0,SW,10.4,17.3,N/A,,Mostly Cloudy,220,2012-10-14 17:25:00
1:45 PM,71.6,53.6,53,30.09,10.0,SSW,15.0,24.2,N/A,,Mostly Cloudy,210,2012-10-14 17:45:00
2:05 PM,69.8,53.6,56,30.07,10.0,SW,9.2,-,N/A,,Scattered Clouds,230,2012-10-14 18:05:00
2:25 PM,68.0,53.6,60,30.06,10.0,SW,11.5,19.6,N/A,,Mostly Cloudy,220,2012-10-14 18:25:00
2:50 PM,69.8,53.6,56,30.05,10.0,SSW,12.7,19.6,N/A,,Mostly Cloudy,210,2012-10-14 18:50:00
3:10 PM,68.0,53.6,60,30.04,10.0,SSW,12.7,19.6,N/A,,Scattered Clouds,210,2012-10-14 19:10:00
3:50 PM,69.8,51.8,53,30.02,10.0,SSW,17.3,21.9,N/A,,Clear,210,2012-10-14 19:50:00
4:15 PM,69.8,51.8,53,30.01,10.0,SSW,12.7,20.7,N/A,,Clear,200,2012-10-14 20:15:00
4:35 PM,69.8,50.0,49,30.00,10.0,SSW,6.9,21.9,N/A,,Clear,200,2012-10-14 20:35:00
4:55 PM,69.8,50.0,49,30.00,10.0,SSW,8.1,20.7,N/A,,Clear,200,2012-10-14 20:55:00
5:15 PM,68.0,51.8,56,30.00,10.0,South,6.9,-,N/A,,Clear,190,2012-10-14 21:15:00
5:40 PM,68.0,51.8,56,29.99,10.0,South,5.8,-,N/A,,Clear,190,2012-10-14 21:40:00
6:00 PM,66.2,51.8,60,29.97,10.0,South,5.8,-,N/A,,Clear,180,2012-10-14 22:00:00
6:20 PM,66.2,50.0,56,29.97,10.0,South,6.9,-,N/A,,Clear,180,2012-10-14 22:20:00
6:40 PM,64.4,51.8,64,29.96,10.0,SSE,6.9,-,N/A,,Clear,160,2012-10-14 22:40:00
7:05 PM,62.6,51.8,68,29.96,10.0,South,6.9,-,N/A,,Clear,170,2012-10-14 23:05:00
7:25 PM,60.8,51.8,72,29.95,10.0,SSE,6.9,-,N/A,,Clear,160,2012-10-14 23:25:00
7:45 PM,60.8,51.8,72,29.95,10.0,SSE,6.9,-,N/A,,Clear,160,2012-10-14 23:45:00
8:05 PM,60.8,51.8,72,29.94,10.0,SSE,10.4,-,N/A,,Clear,160,2012-10-15 00:05:00
8:30 PM,59.0,51.8,77,29.93,10.0,SSE,9.2,-,N/A,,Clear,160,2012-10-15 00:30:00
8:50 PM,60.8,51.8,72,29.92,10.0,South,10.4,-,N/A,,Clear,180,2012-10-15 00:50:00
9:10 PM,60.8,50.0,68,29.91,10.0,South,10.4,16.1,N/A,,Clear,180,2012-10-15 01:10:00
9:30 PM,60.8,50.0,68,29.91,10.0,South,10.4,-,N/A,,Clear,190,2012-10-15 01:30:00
9:55 PM,60.8,50.0,68,29.92,10.0,South,9.2,-,N/A,,Clear,180,2012-10-15 01:55:00
10:55 PM,60.8,50.0,68,29.91,10.0,South,16.1,21.9,N/A,,Overcast,190,2012-10-15 02:55:00
11:20 PM,60.8,50.0,68,29.90,10.0,SSW,11.5,20.7,N/A,,Overcast,200,2012-10-15 03:20:00
11:40 PM,59.0,51.8,77,29.89,10.0,SSW,15.0,21.9,N/A,,Mostly Cloudy,200,2012-10-15 03:40:00